Regional Weather Roundup
Issued by NWS State College, PA

Home | Current Version | Previous Version | Graphics & Text | Print | Product List | Glossary Off
Versions: 1 2 3 4 5 6 7 8 9 10 11 12 13 14 15 16 17 18 19 20 21 22 23 24 25 26 27 28 29 30 31 32 33 34 35 36 37 38 39 40 41 42 43 44 45 46 47 48 49 50

000
ASUS41 KCTP 041410
RWRCTP

REGIONAL WEATHER ROUNDUP
NATIONAL WEATHER SERVICE STATE COLLEGE PA
1000 AM EDT SAT JUL 04 2015

Note: "fair" indicates few or no clouds below 12,000 feet with no
significant weather and/or obstructions to visibility.

* = STATION THAT DOES NOT REPORT PRECIPITATION /E.G. RAIN...SNOW...ETC/
    THUNDER OR FOG.

PAZ002>004-007>009-013>016-020>023-029>032-041500-
WESTERN PENNSYLVANIA

CITY           SKY/WX    TMP DP  RH WIND       PRES   REMARKS
ERIE           SUNNY     68  56  65 N7        29.96R
MEADVILLE      SUNNY     70  58  65 N5        29.96R
FRANKLIN*      CLOUDY    68  61  77 NE3       29.97R
NEW CASTLE     PTSUNNY   72  67  84 CALM      29.96R
BEAVER COUNTY  NOT AVBL
BUTLER*        PTSUNNY   70  64  83 CALM      29.96R
PITTSBURGH INT PTSUNNY   70  64  81 N3        29.94S
PITTSBURGH     CLOUDY    69  62  78 VRB6      29.93S
INDIANA*       CLOUDY    66  66 100 CALM      29.96S
LATROBE        CLOUDY    66  66 100 CALM      29.94R FOG
WASHINGTON CO* NOT AVBL
$$

PAZ004>006-010>012-017>019-024>028-033>037-041-042-045-046-049>053-041500-
CENTRAL PENNSYLVANIA

CITY           SKY/WX    TMP DP  RH WIND       PRES   REMARKS
BRADFORD       MOSUNNY   66  59  78 SE9       29.96F
DUBOIS         CLOUDY    67  63  87 NE6       29.94R
CLEARFIELD     LGT RAIN  64  62  93 E6        29.95S FOG
JOHNSTOWN      CLOUDY    63  62  97 CALM      29.94S FOG
ALTOONA        LGT RAIN  63  62  97 NE5       29.94R FOG
STATE COLLEGE  LGT RAIN  63  61  94 CALM      29.95R FOG
WILLIAMSPORT   RAIN      63  60  90 E5        29.95R FOG
SELINSGROVE    HVY RAIN  64  61  90 CALM      29.96R FOG
FT INDIANTOWN  LGT RAIN  64  63  94 E6        29.95S FOG
CAPITAL CITY   LGT RAIN  66  63  90 E5        29.94R FOG
HARRISBURG     LGT RAIN  66  63  90 CALM      29.94R FOG
YORK           LGT RAIN  68  67  96 E7        29.93S FOG
$$

PAZ038>040-043-044-047-048-054-055-060>062-067>071-041500-
EASTERN PENNSYLVANIA

CITY           SKY/WX    TMP DP  RH WIND       PRES   REMARKS
SCRANTON       RAIN      64  63  96 NE5       29.99R FOG
MOUNT POCONO   LGT RAIN  62  57  83 E3        30.01F
ALLENTOWN      LGT RAIN  68  64  87 E7        29.97R
QUAKERTOWN*    CLOUDY    66  63  88 N5        29.98R
READING        LGT RAIN  68  65  90 N6        29.94S FOG
LANCASTER      CLOUDY    68  66  93 E9        29.93S FOG
COATESVILLE    LGT RAIN  68  68 100 NE3       29.95S
POTTSTOWN      LGT RAIN  69  67  93 N7        29.96R
BLUE BELL      CLOUDY    72  66  83 NE3       29.93S
DOYLESTOWN     CLOUDY    69  65  86 N6        29.95R
WILLOW GROVE   NOT AVBL
NORTH PHILA    CLOUDY    75  61  61 NE8       29.94R
PHILADELPHIA   CLOUDY    75  62  64 NE7       29.92R
$$


USA.gov is the U.S. government's official web portal to all federal, state and local government web resources and services.